TITAN 3C TRANSTAGE DEB, 26527

Orbit data source: Space-Track

TITAN 3C TRANSTAGE DEB, 26527 is space debris in HEO originally from a launch on Tue, 21 Dec 1965 UTC launched from the Air Force Eastern Test Range (AFETR). Debris objects in space refer to the collection of defunct objects orbiting the Earth. Examples of debris include non-operational satellites, rocket bodies, and fragments generated from explosions, collisions, or faulty payload assembly.

Loading next visibility...
Identifier
26527, 1965-108AN
Orbit
HEO
Country
Flag of USUS
Related business
Manufacturer
Unknown
Mission
Spacecraft
Bus & Motor
Unknown
Mass
Unknown
Launch date (UTC)
1965-12-21 (60 years ago)
Launch vehicle
Unknown
Launch site
Air Force Eastern Test Range (AFETR)
Object type
Payload
Rocket body
Debris
Shape & HBR
Unknown shape, 0.1 m
Radar Cross Section
Medium (>0.1 m² and <1 m²)

Expand to show TLE details & history
Last TLE update: 1 week ago

TLE from 1 week ago
0 TITAN 3C TRANSTAGE DEB
1 26527U 65108AN  26162.10875836  .00000275  00000-0  43922-2 0  9993
2 26527  27.0157 306.1781 6777887 168.3389 359.5146  2.71501065269636
Epoch: 2026-06-11T02:36Z
TLE epoch observation values (Epoch: 2026-06-11T02:36:36.722Z)
Latitude
6.42343°
Longitude
174.87988°
Altitude
616.812 km
Speed
9.778 km/s
True Right ascension
07h 33m 57s
True Declination
6° 23' 04"
Sunlit
Object was in daylight at epoch
Visualization orbit readout
Latitude
Unknown
Longitude
Unknown
Altitude
Unknown
Speed
Unknown
Apparent Right ascension
Unknown
Apparent Declination
Unknown
Sunlit
N/A
Visualization observer readout
Local Sidereal Time
21:07:00
Azimuth
Unknown
Elevation
Unknown
Doppler factor
Unknown
Orbital elements
Apogee altitude
30,043.731 km
Perigee altitude
616.509 km
Semi-major axis
21,708.257 km
Eccentricity
0.67779
Inclination
27.0157°
RAAN
306.1781°
Arg. of periapsis
168.3389°
True anomaly
356.56405°
Mean anomaly
359.5146°
Eccentric anomaly
358.4939°
Mean motion
0.67859 °/min
Orbital period
530.51 mins
BSTAR
0.0043922

Documentation

Showing up to 5 results
|